contact:dominique.lefevre@mio.osupytheas.fr, maurice.libes@osupytheas.fr, didier.mallarino@osupytheas.fr
Project:EMSO http://www.emso-fr.org/EMSO-France
Depth: 2436.0 m
Title:EMSO Ligure Ouest : Data MII capteur AQUADOPP
Date,Latitude,Longitude,X_East,Y_North,Z_Up,Amplitude_X,Amplitude_Y,Amplitude_Z,Batterie,SoundSpeed,Heading,Pitch,Roll,Pressure,TIS,Speed,Direction
, degrees North, degrees East, m.s-1, m.s-1,m.s-1, 1, 1, 1, Volt, m.s-1, degree, degree, degree, dbar, degree_C, m.s-1, degree
2022-05-06T00:04:03,42.805,6.029,0.037,-0.007,0.0,101.0,104.0,100.0,13.4,1505.2,327.8,-0.8,1.9,2470.847,13.28,0.037,100.7
2022-05-06T00:07:03,42.805,6.029,0.045,-0.006,0.016,102.0,105.0,100.0,13.4,1505.2,329.2,-0.7,1.8,2470.816,13.28,0.045,97.6
2022-05-06T00:10:03,42.805,6.029,0.036,0.007,-0.013,102.0,103.0,100.0,13.4,1505.2,326.4,-0.7,1.8,2470.732,13.28,0.036,79.0
2022-05-06T00:13:03,42.805,6.029,0.014,0.009,0.028,100.0,103.0,100.0,13.4,1505.2,324.5,-0.8,1.8,2470.784,13.28,0.016,57.3
2022-05-06T00:16:03,42.805,6.029,0.029,0.004,0.01,101.0,104.0,101.0,13.3,1505.2,329.4,-0.8,1.8,2470.72,13.28,0.029,82.2
2022-05-06T00:19:03,42.805,6.029,0.03,0.007,0.016,102.0,104.0,100.0,13.4,1505.2,329.6,-0.8,1.8,2470.624,13.28,0.03,76.9
2022-05-06T00:22:03,42.805,6.029,0.047,-0.003,0.0,101.0,103.0,100.0,13.3,1505.2,332.1,-0.8,1.8,2470.574,13.28,0.047,93.6
2022-05-06T00:25:03,42.805,6.029,0.008,-0.012,0.002,101.0,103.0,100.0,13.3,1505.2,328.6,-0.8,1.8,2470.533,13.28,0.014,146.3
2022-05-06T00:28:03,42.805,6.029,0.025,0.015,-0.013,102.0,102.0,100.0,13.4,1505.2,324.1,-0.7,1.8,2470.441,13.28,0.029,59.0
2022-05-06T00:31:03,42.805,6.029,0.035,0.018,0.011,102.0,103.0,100.0,13.4,1505.2,327.6,-0.8,1.8,2470.423,13.28,0.039,62.8
2022-05-06T00:34:03,42.805,6.029,0.008,0.003,-0.023,100.0,104.0,100.0,13.3,1505.2,333.2,-0.8,1.8,2470.363,13.28,0.008,69.4
2022-05-06T00:37:03,42.805,6.029,0.028,0.011,-0.006,102.0,104.0,100.0,13.4,1505.2,326.4,-0.8,1.8,2470.316,13.28,0.03,68.6
2022-05-06T00:40:03,42.805,6.029,0.027,0.014,0.022,103.0,103.0,101.0,13.3,1505.2,324.0,-0.7,1.8,2470.274,13.28,0.03,62.6
2022-05-06T00:43:03,42.805,6.029,0.043,0.013,0.024,101.0,104.0,100.0,13.3,1505.2,329.3,-0.8,1.8,2470.268,13.28,0.044,73.2
2022-05-06T00:46:03,42.805,6.029,0.045,-0.009,0.0,100.0,104.0,100.0,13.3,1505.2,327.6,-0.8,1.8,2470.217,13.28,0.045,101.3
2022-05-06T00:49:03,42.805,6.029,0.029,-0.001,0.015,101.0,105.0,99.0,13.4,1505.2,332.0,-0.8,1.8,2470.246,13.28,0.029,92.0
2022-05-06T00:52:03,42.805,6.029,0.039,-0.027,-0.065,101.0,103.0,100.0,13.4,1505.2,324.4,-0.8,1.8,2470.213,13.28,0.047,124.7
2022-05-06T00:55:03,42.805,6.029,0.033,0.008,0.03,100.0,104.0,100.0,13.4,1505.2,329.9,-0.8,1.8,2470.2,13.28,0.033,76.4
2022-05-06T00:58:03,42.805,6.029,0.035,0.018,0.017,101.0,106.0,99.0,13.4,1505.2,331.9,-0.8,1.8,2470.178,13.28,0.039,62.8
2022-05-06T01:04:03,42.805,6.029,0.073,0.005,0.028,103.0,105.0,101.0,13.4,1505.2,329.7,-0.7,1.9,2470.159,13.28,0.073,86.1
2022-05-06T01:07:03,42.805,6.029,0.031,0.003,-0.013,101.0,103.0,100.0,13.3,1505.2,324.5,-0.8,1.8,2470.157,13.28,0.031,84.5
2022-05-06T01:10:03,42.805,6.029,0.037,-0.006,-0.011,101.0,102.0,101.0,13.4,1505.2,325.4,-0.7,1.8,2470.147,13.28,0.037,99.2
2022-05-06T01:13:03,42.805,6.029,0.008,-0.003,-0.021,101.0,102.0,100.0,13.4,1505.2,330.6,-0.8,1.8,2470.146,13.28,0.008,110.6
2022-05-06T01:16:03,42.805,6.029,0.021,0.004,-0.006,102.0,104.0,99.0,13.4,1505.2,325.3,-0.7,1.8,2470.149,13.28,0.021,79.2
2022-05-06T01:19:03,42.805,6.029,0.024,0.015,0.01,102.0,103.0,100.0,13.4,1505.2,328.6,-0.7,1.8,2470.074,13.28,0.028,58.0
2022-05-06T01:22:03,42.805,6.029,0.005,0.036,0.009,102.0,104.0,99.0,13.4,1505.2,322.8,-0.8,1.8,2470.078,13.28,0.036,7.9
2022-05-06T01:25:03,42.805,6.029,0.038,0.013,0.022,100.0,104.0,100.0,13.4,1505.2,325.3,-0.8,1.8,2470.078,13.28,0.04,71.1
2022-05-06T01:28:03,42.805,6.029,0.04,-0.007,0.013,101.0,105.0,100.0,13.3,1505.2,329.4,-0.8,1.8,2470.041,13.28,0.04,99.9
2022-05-06T01:31:03,42.805,6.029,0.033,0.004,0.007,99.0,103.0,101.0,13.4,1505.2,322.3,-0.8,1.8,2470.079,13.28,0.033,83.1
2022-05-06T01:34:03,42.805,6.029,0.06,-0.008,0.009,102.0,104.0,100.0,13.3,1505.2,326.7,-0.8,1.8,2470.026,13.28,0.06,97.6
2022-05-06T01:37:03,42.805,6.029,0.038,0.008,0.016,101.0,104.0,100.0,13.3,1505.2,330.5,-0.8,1.8,2470.017,13.28,0.038,78.1
2022-05-06T01:40:03,42.805,6.029,0.057,-0.013,-0.016,101.0,105.0,100.0,13.3,1505.2,321.8,-0.8,1.9,2469.991,13.28,0.058,102.8
2022-05-06T01:43:03,42.805,6.029,0.049,0.016,0.004,102.0,103.0,100.0,13.4,1505.2,326.3,-0.7,1.9,2469.962,13.28,0.051,71.9
2022-05-06T01:46:03,42.805,6.029,0.013,0.004,-0.005,100.0,103.0,100.0,13.3,1505.2,327.4,-0.7,1.9,2469.979,13.28,0.013,72.9
2022-05-06T01:49:03,42.805,6.029,0.038,0.001,0.021,101.0,103.0,100.0,13.4,1505.2,329.5,-0.7,1.8,2469.938,13.28,0.038,88.5
2022-05-06T01:52:03,42.805,6.029,0.038,0.004,0.007,101.0,104.0,100.0,13.4,1505.2,324.9,-0.8,1.8,2469.955,13.28,0.038,84.0
2022-05-06T01:55:03,42.805,6.029,0.045,-0.006,0.0,101.0,104.0,100.0,13.4,1505.2,322.9,-0.8,1.9,2469.963,13.28,0.045,97.6
2022-05-06T01:58:03,42.805,6.029,0.041,0.013,0.019,102.0,104.0,100.0,13.3,1505.2,329.4,-0.8,1.8,2469.956,13.28,0.043,72.4
2022-05-06T02:01:03,42.805,6.029,0.053,0.012,0.036,101.0,103.0,101.0,13.4,1505.2,329.5,-0.8,1.8,2470.007,13.28,0.054,77.2
2022-05-06T02:04:03,42.805,6.029,0.036,0.018,0.005,101.0,103.0,100.0,13.4,1505.2,330.5,-0.8,1.8,2469.983,13.28,0.04,63.4
2022-05-06T02:07:03,42.805,6.029,0.03,0.004,-0.028,101.0,103.0,100.0,13.3,1505.2,324.4,-0.8,1.8,2469.997,13.28,0.03,82.4
2022-05-06T02:10:03,42.805,6.029,0.018,-0.002,0.013,101.0,105.0,100.0,13.4,1505.2,323.0,-0.7,1.8,2470.043,13.28,0.018,96.3
2022-05-06T02:13:03,42.805,6.029,0.053,-0.005,0.004,101.0,103.0,100.0,13.4,1505.2,322.7,-0.8,1.8,2470.029,13.28,0.053,95.4
2022-05-06T02:16:03,42.805,6.029,0.027,0.006,-0.007,101.0,104.0,100.0,13.4,1505.2,331.7,-0.7,1.8,2470.053,13.28,0.027,77.5
2022-05-06T02:19:03,42.805,6.029,0.031,0.026,0.017,102.0,104.0,100.0,13.4,1505.2,330.6,-0.8,1.8,2470.076,13.28,0.04,50.0
2022-05-06T02:22:03,42.805,6.029,0.034,0.015,0.012,102.0,103.0,100.0,13.4,1505.2,326.1,-0.7,1.8,2470.055,13.28,0.037,66.2
2022-05-06T02:25:03,42.805,6.029,0.047,0.021,0.016,102.0,104.0,100.0,13.3,1505.2,333.2,-0.8,1.8,2470.056,13.28,0.051,65.9
2022-05-06T02:28:03,42.805,6.029,0.002,0.004,-0.025,101.0,103.0,100.0,13.4,1505.2,323.2,-0.7,1.8,2470.114,13.28,0.004,26.6
2022-05-06T02:31:03,42.805,6.029,0.015,-0.015,-0.054,101.0,104.0,99.0,13.4,1505.2,329.3,-0.7,1.9,2470.13,13.28,0.021,135.0
2022-05-06T02:34:03,42.805,6.029,0.012,0.019,0.035,101.0,104.0,99.0,13.3,1505.2,322.7,-0.8,1.8,2470.166,13.28,0.022,32.3
2022-05-06T02:37:03,42.805,6.029,0.047,0.004,0.014,101.0,104.0,101.0,13.4,1505.2,328.7,-0.8,1.8,2470.183,13.28,0.047,85.1
2022-05-06T02:40:03,42.805,6.029,0.006,-0.002,-0.001,101.0,103.0,100.0,13.4,1505.2,323.7,-0.7,1.8,2470.172,13.28,0.006,108.4
2022-05-06T02:43:03,42.805,6.029,0.049,0.024,0.034,100.0,103.0,100.0,13.4,1505.2,327.2,-0.8,1.8,2470.212,13.28,0.054,63.9
2022-05-06T02:46:03,42.805,6.029,0.034,-0.009,-0.028,100.0,104.0,100.0,13.3,1505.2,325.1,-0.8,1.8,2470.251,13.28,0.035,104.8
2022-05-06T02:49:03,42.805,6.029,0.029,0.018,0.044,101.0,102.0,101.0,13.3,1505.2,323.8,-0.8,1.8,2470.234,13.28,0.034,58.2
2022-05-06T02:52:03,42.805,6.029,0.03,0.0,0.008,102.0,103.0,99.0,13.3,1505.2,331.6,-0.7,1.8,2470.241,13.28,0.03,90.0
2022-05-06T02:55:03,42.805,6.029,0.058,-0.001,0.004,102.0,103.0,100.0,13.3,1505.2,330.4,-0.8,1.8,2470.278,13.28,0.058,91.0
2022-05-06T02:58:03,42.805,6.029,0.029,0.006,0.033,102.0,103.0,99.0,13.3,1505.2,327.4,-0.8,1.8,2470.274,13.28,0.029,78.3
2022-05-06T03:04:03,42.805,6.029,0.021,0.004,-0.009,101.0,102.0,100.0,13.4,1505.2,325.0,-0.8,1.8,2470.357,13.28,0.021,79.2
2022-05-06T03:07:03,42.805,6.029,0.015,0.001,-0.033,101.0,103.0,101.0,13.3,1505.2,324.5,-0.8,1.8,2470.323,13.28,0.015,86.2
2022-05-06T03:10:03,42.805,6.029,0.011,0.0,0.005,100.0,102.0,101.0,13.4,1505.2,323.5,-0.8,1.9,2470.335,13.28,0.011,90.0
2022-05-06T03:13:03,42.805,6.029,0.034,-0.006,-0.015,102.0,103.0,100.0,13.4,1505.2,324.7,-0.8,1.8,2470.349,13.28,0.034,100.0
2022-05-06T03:16:03,42.805,6.029,0.01,0.003,-0.003,103.0,103.0,100.0,13.4,1505.2,325.8,-0.7,1.8,2470.34,13.28,0.01,73.3
2022-05-06T03:19:03,42.805,6.029,0.008,0.011,-0.005,101.0,103.0,101.0,13.4,1505.2,330.4,-0.8,1.8,2470.339,13.28,0.013,36.0
2022-05-06T03:22:03,42.805,6.029,0.031,0.015,-0.001,101.0,104.0,100.0,13.3,1505.2,324.5,-0.8,1.9,2470.378,13.28,0.034,64.2
2022-05-06T03:25:03,42.805,6.029,0.021,-0.002,0.032,103.0,101.0,101.0,13.4,1505.2,329.9,-0.7,1.8,2470.373,13.28,0.021,95.4
2022-05-06T03:28:03,42.805,6.029,0.015,-0.001,-0.007,100.0,104.0,101.0,13.4,1505.2,331.1,-0.7,1.8,2470.36,13.28,0.015,93.8
2022-05-06T03:31:03,42.805,6.029,0.016,0.021,0.028,101.0,104.0,100.0,13.4,1505.2,329.3,-0.8,1.8,2470.367,13.28,0.026,37.3
2022-05-06T03:34:03,42.805,6.029,0.023,0.0,-0.005,101.0,103.0,100.0,13.4,1505.2,330.4,-0.8,1.8,2470.413,13.28,0.023,90.0
2022-05-06T03:37:03,42.805,6.029,0.035,-0.013,-0.007,102.0,103.0,100.0,13.4,1505.2,328.1,-0.8,1.8,2470.378,13.28,0.037,110.4
2022-05-06T03:40:03,42.805,6.029,0.031,-0.005,0.0,101.0,104.0,100.0,13.4,1505.2,332.4,-0.7,1.8,2470.405,13.28,0.031,99.2
2022-05-06T03:43:03,42.805,6.029,0.04,-0.003,0.006,102.0,103.0,100.0,13.4,1505.2,323.1,-0.7,1.8,2470.39,13.28,0.04,94.3
2022-05-06T03:46:03,42.805,6.029,0.042,0.011,0.027,102.0,104.0,100.0,13.3,1505.2,326.0,-0.8,1.8,2470.397,13.28,0.043,75.3
2022-05-06T03:49:03,42.805,6.029,0.043,0.015,0.007,101.0,104.0,100.0,13.4,1505.2,327.5,-0.8,1.8,2470.42,13.28,0.045,70.8
2022-05-06T03:52:03,42.805,6.029,0.023,0.016,0.004,101.0,105.0,101.0,13.4,1505.2,326.6,-0.8,1.8,2470.379,13.28,0.028,55.2
2022-05-06T03:55:03,42.805,6.029,0.028,0.007,0.001,101.0,103.0,101.0,13.3,1505.2,324.5,-0.8,1.8,2470.407,13.28,0.028,76.0
2022-05-06T03:58:03,42.805,6.029,0.031,0.019,0.027,101.0,103.0,100.0,13.4,1505.2,325.0,-0.8,1.8,2470.389,13.28,0.036,58.5
2022-05-06T04:04:03,42.805,6.029,0.029,0.002,0.044,101.0,103.0,100.0,13.4,1505.2,324.8,-0.7,1.8,2470.387,13.28,0.029,86.1
2022-05-06T04:07:03,42.805,6.029,0.019,0.002,0.017,101.0,103.0,101.0,13.3,1505.2,327.9,-0.8,1.8,2470.425,13.28,0.019,84.0
2022-05-06T04:10:03,42.805,6.029,0.035,0.0,0.0,101.0,104.0,101.0,13.3,1505.2,324.2,-0.8,1.9,2470.371,13.28,0.035,90.0
2022-05-06T04:13:03,42.805,6.029,0.045,-0.003,-0.015,103.0,104.0,100.0,13.4,1505.2,323.2,-0.7,1.8,2470.339,13.28,0.045,93.8
2022-05-06T04:16:03,42.805,6.029,0.034,0.009,0.014,102.0,103.0,101.0,13.4,1505.2,328.9,-0.7,1.8,2470.39,13.28,0.035,75.2
2022-05-06T04:19:03,42.805,6.029,0.031,-0.01,-0.001,100.0,103.0,100.0,13.4,1505.2,331.8,-0.8,1.9,2470.34,13.28,0.032,107.9
2022-05-06T04:22:03,42.805,6.029,0.059,-0.007,0.028,101.0,105.0,100.0,13.3,1505.2,328.4,-0.8,1.8,2470.383,13.28,0.059,96.8
2022-05-06T04:25:03,42.805,6.029,0.024,0.005,-0.016,101.0,105.0,101.0,13.4,1505.2,328.5,-0.8,1.8,2470.344,13.28,0.024,78.2
2022-05-06T04:28:03,42.805,6.029,0.019,0.017,0.007,102.0,102.0,100.0,13.4,1505.2,331.1,-0.7,1.8,2470.356,13.28,0.025,48.2
2022-05-06T04:31:03,42.805,6.029,0.052,-0.006,0.033,102.0,103.0,100.0,13.3,1505.2,328.1,-0.8,1.8,2470.373,13.28,0.052,96.6
2022-05-06T04:34:03,42.805,6.029,0.031,-0.015,-0.011,101.0,103.0,100.0,13.4,1505.2,328.5,-0.8,1.8,2470.378,13.28,0.034,115.8
2022-05-06T04:37:03,42.805,6.029,0.027,-0.005,-0.004,102.0,104.0,100.0,13.3,1505.2,327.8,-0.8,1.8,2470.384,13.28,0.027,100.5
2022-05-06T04:40:03,42.805,6.029,0.005,-0.01,-0.02,102.0,102.0,100.0,13.4,1505.2,329.0,-0.8,1.8,2470.356,13.28,0.011,153.4
2022-05-06T04:43:03,42.805,6.029,0.034,-0.006,-0.014,103.0,103.0,100.0,13.3,1505.2,324.7,-0.7,1.8,2470.41,13.28,0.034,100.0
2022-05-06T04:46:03,42.805,6.029,0.022,0.013,-0.006,100.0,104.0,100.0,13.4,1505.2,329.1,-0.7,1.8,2470.398,13.28,0.025,59.4
2022-05-06T04:49:03,42.805,6.029,0.01,0.011,0.027,102.0,103.0,100.0,13.4,1505.2,331.0,-0.7,1.8,2470.401,13.28,0.014,42.3
2022-05-06T04:52:03,42.805,6.029,0.042,-0.004,-0.001,101.0,104.0,100.0,13.4,1505.2,323.2,-0.8,1.8,2470.404,13.28,0.042,95.4
2022-05-06T04:55:03,42.805,6.029,0.034,-0.013,-0.012,101.0,104.0,100.0,13.4,1505.2,328.5,-0.8,1.8,2470.382,13.28,0.036,110.9
2022-05-06T04:58:03,42.805,6.029,0.05,-0.022,-0.011,100.0,103.0,100.0,13.3,1505.2,321.2,-0.8,1.8,2470.367,13.28,0.054,113.7
2022-05-06T05:04:03,42.805,6.029,0.022,0.011,0.011,102.0,101.0,100.0,13.4,1505.2,325.4,-0.8,1.8,2470.382,13.28,0.024,63.4
2022-05-06T05:07:03,42.805,6.029,0.013,-0.013,-0.013,102.0,103.0,100.0,13.4,1505.2,333.2,-0.8,1.8,2470.32,13.28,0.018,135.0
2022-05-06T05:10:03,42.805,6.029,0.041,0.002,0.008,104.0,102.0,101.0,13.3,1505.2,327.7,-0.8,1.8,2470.35,13.28,0.041,87.2
2022-05-06T05:13:03,42.805,6.029,0.027,-0.002,0.001,103.0,103.0,100.0,13.4,1505.2,328.3,-0.7,1.8,2470.334,13.28,0.027,94.2
2022-05-06T05:16:03,42.805,6.029,0.041,0.008,0.05,102.0,106.0,100.0,13.4,1505.2,323.2,-0.7,1.8,2470.336,13.28,0.041,79.0
2022-05-06T05:19:03,42.805,6.029,0.027,-0.007,-0.009,101.0,103.0,100.0,13.4,1505.2,330.4,-0.7,1.8,2470.299,13.28,0.027,104.5
2022-05-06T05:22:03,42.805,6.029,0.048,-0.001,-0.006,104.0,102.0,101.0,13.3,1505.2,328.8,-0.7,1.8,2470.337,13.28,0.048,91.2
2022-05-06T05:25:03,42.805,6.029,0.06,-0.004,-0.007,101.0,103.0,100.0,13.4,1505.2,325.4,-0.8,1.8,2470.32,13.28,0.06,93.8
2022-05-06T05:28:03,42.805,6.029,0.066,-0.013,0.021,102.0,104.0,99.0,13.4,1505.2,327.7,-0.7,1.8,2470.356,13.28,0.067,101.1
2022-05-06T05:31:03,42.805,6.029,0.027,0.012,0.004,101.0,103.0,101.0,13.3,1505.2,328.3,-0.7,1.8,2470.292,13.28,0.029,66.0
2022-05-06T05:34:03,42.805,6.029,0.027,-0.007,0.015,101.0,104.0,100.0,13.4,1505.2,325.3,-0.7,1.8,2470.303,13.28,0.027,104.5
2022-05-06T05:37:03,42.805,6.029,0.02,0.012,-0.006,100.0,104.0,100.0,13.3,1505.2,324.7,-0.8,1.8,2470.278,13.28,0.023,59.0
2022-05-06T05:40:03,42.805,6.029,0.007,0.018,0.021,100.0,102.0,101.0,13.4,1505.2,330.6,-0.8,1.8,2470.317,13.28,0.019,21.2
2022-05-06T05:43:03,42.805,6.029,0.055,0.009,0.041,100.0,104.0,101.0,13.4,1505.2,328.5,-0.7,1.8,2470.357,13.28,0.055,80.7
2022-05-06T05:46:03,42.805,6.029,0.037,0.001,0.006,103.0,104.0,100.0,13.4,1505.2,322.6,-0.8,1.8,2470.28,13.28,0.037,88.5
2022-05-06T05:49:03,42.805,6.029,0.026,-0.004,0.012,99.0,103.0,100.0,13.3,1505.2,331.4,-0.8,1.8,2470.274,13.28,0.026,98.7
2022-05-06T05:52:03,42.805,6.029,0.017,-0.001,-0.012,103.0,103.0,98.0,13.4,1505.2,324.3,-0.8,1.8,2470.292,13.28,0.017,93.4
2022-05-06T05:55:03,42.805,6.029,0.027,0.014,0.008,101.0,104.0,100.0,13.4,1505.2,323.3,-0.7,1.9,2470.306,13.28,0.03,62.6
2022-05-06T05:58:03,42.805,6.029,0.017,0.022,0.041,102.0,102.0,101.0,13.4,1505.2,327.8,-0.7,1.8,2470.283,13.28,0.027,37.7
2022-05-06T06:04:03,42.805,6.029,0.026,0.01,0.001,101.0,105.0,101.0,13.4,1505.2,323.2,-0.8,1.8,2470.315,13.28,0.027,69.0
2022-05-06T06:07:03,42.805,6.029,0.031,0.005,0.008,101.0,102.0,101.0,13.3,1505.2,321.4,-0.8,1.8,2470.291,13.28,0.031,80.8
2022-05-06T06:10:03,42.805,6.029,0.047,0.004,-0.006,101.0,103.0,100.0,13.3,1505.2,330.7,-0.8,1.8,2470.259,13.28,0.047,85.1
2022-05-06T06:13:03,42.805,6.029,0.031,-0.001,0.013,101.0,103.0,100.0,13.4,1505.2,330.8,-0.7,1.8,2470.272,13.28,0.031,91.8
2022-05-06T06:16:03,42.805,6.029,0.055,0.003,0.011,101.0,102.0,100.0,13.4,1505.2,326.7,-0.8,1.8,2470.261,13.28,0.055,86.9
2022-05-06T06:19:03,42.805,6.029,0.031,-0.022,0.0,101.0,104.0,100.0,13.4,1505.2,324.8,-0.7,1.8,2470.287,13.28,0.038,125.4
2022-05-06T06:22:03,42.805,6.029,0.058,-0.005,0.036,102.0,104.0,99.0,13.4,1505.2,329.7,-0.8,1.8,2470.313,13.28,0.058,94.9
2022-05-06T06:25:03,42.805,6.029,0.041,-0.004,-0.004,100.0,102.0,100.0,13.4,1505.2,330.5,-0.8,1.8,2470.292,13.28,0.041,95.6
2022-05-06T06:28:03,42.805,6.029,0.044,0.005,0.04,101.0,103.0,100.0,13.4,1505.2,326.7,-0.8,1.8,2470.282,13.28,0.044,83.5
2022-05-06T06:31:03,42.805,6.029,0.008,0.0,-0.018,99.0,104.0,100.0,13.4,1505.2,328.9,-0.7,1.8,2470.263,13.28,0.008,90.0
2022-05-06T06:34:03,42.805,6.029,0.04,0.015,0.004,102.0,103.0,100.0,13.4,1505.2,322.8,-0.7,1.8,2470.262,13.28,0.042,69.4
2022-05-06T06:37:03,42.805,6.029,0.023,0.024,0.026,101.0,104.0,100.0,13.4,1505.2,332.0,-0.8,1.9,2470.258,13.28,0.033,43.8
2022-05-06T06:40:03,42.805,6.029,0.034,-0.003,-0.012,101.0,102.0,100.0,13.3,1505.2,321.1,-0.8,1.8,2470.267,13.28,0.034,95.0
2022-05-06T06:43:03,42.805,6.029,0.017,-0.004,-0.012,100.0,102.0,100.0,13.4,1505.2,326.4,-0.7,1.8,2470.26,13.28,0.017,103.2
2022-05-06T06:46:03,42.805,6.029,0.064,-0.009,0.043,101.0,104.0,99.0,13.4,1505.2,324.6,-0.8,1.8,2470.238,13.28,0.064,98.0
2022-05-06T06:49:03,42.805,6.029,0.025,-0.002,-0.006,101.0,103.0,99.0,13.4,1505.2,331.6,-0.7,1.8,2470.229,13.28,0.025,94.6
2022-05-06T06:52:03,42.805,6.029,0.045,-0.012,-0.023,101.0,101.0,101.0,13.4,1505.2,332.8,-0.8,1.8,2470.266,13.28,0.046,104.9
2022-05-06T06:55:03,42.805,6.029,0.035,-0.012,-0.017,102.0,101.0,100.0,13.4,1505.2,324.3,-0.7,1.8,2470.324,13.28,0.037,108.9
2022-05-06T06:58:03,42.805,6.029,0.025,-0.004,0.02,101.0,103.0,100.0,13.4,1505.2,329.5,-0.8,1.9,2470.375,13.28,0.025,99.1
2022-05-06T07:04:03,42.805,6.029,0.02,0.003,0.023,101.0,102.0,100.0,13.4,1505.2,325.5,-0.7,1.8,2470.524,13.28,0.02,81.5
2022-05-06T07:07:03,42.805,6.029,0.029,-0.004,0.009,101.0,102.0,100.0,13.4,1505.2,331.3,-0.8,1.8,2470.526,13.28,0.029,97.8
2022-05-06T07:10:03,42.805,6.029,0.023,-0.017,-0.022,103.0,103.0,100.0,13.4,1505.2,331.3,-0.8,1.9,2470.593,13.28,0.028,126.5
2022-05-06T07:13:03,42.805,6.029,0.07,-0.008,0.022,101.0,103.0,100.0,13.4,1505.2,332.6,-0.7,1.8,2470.604,13.28,0.07,96.5
2022-05-06T07:16:03,42.805,6.029,0.056,0.011,0.042,102.0,103.0,100.0,13.4,1505.2,327.5,-0.8,1.8,2470.675,13.28,0.057,78.9
2022-05-06T07:19:03,42.805,6.029,0.049,0.005,0.013,101.0,102.0,99.0,13.4,1505.2,322.7,-0.8,1.8,2470.692,13.28,0.049,84.2
2022-05-06T07:22:03,42.805,6.029,0.041,-0.016,0.005,102.0,101.0,99.0,13.4,1505.2,332.8,-0.8,1.8,2470.731,13.28,0.044,111.3
2022-05-06T07:25:03,42.805,6.029,0.029,0.005,-0.005,102.0,103.0,100.0,13.4,1505.2,327.6,-0.8,1.8,2470.76,13.28,0.029,80.2
2022-05-06T07:28:03,42.805,6.029,0.012,0.004,0.022,101.0,103.0,99.0,13.3,1505.2,324.5,-0.8,1.8,2470.746,13.28,0.012,71.6
2022-05-06T07:31:03,42.805,6.029,0.044,0.017,0.005,101.0,102.0,99.0,13.4,1505.2,328.8,-0.8,1.8,2470.811,13.28,0.047,68.9
2022-05-06T07:34:03,42.805,6.029,0.023,0.014,0.002,101.0,102.0,102.0,13.4,1505.2,322.1,-0.8,1.8,2470.822,13.28,0.026,58.7
2022-05-06T07:37:03,42.805,6.029,0.027,0.025,0.01,101.0,106.0,100.0,13.3,1505.2,325.8,-0.7,1.8,2470.892,13.28,0.036,47.2
2022-05-06T07:40:03,42.805,6.029,0.036,0.031,0.037,102.0,103.0,100.0,13.3,1505.2,327.2,-0.7,1.8,2470.867,13.28,0.047,49.3
2022-05-06T07:43:03,42.805,6.029,0.024,0.014,-0.024,102.0,103.0,100.0,13.4,1505.2,328.9,-0.8,1.8,2470.87,13.28,0.027,59.7
2022-05-06T07:46:03,42.805,6.029,0.019,-0.012,-0.006,101.0,101.0,99.0,13.4,1505.2,322.7,-0.8,1.8,2470.888,13.28,0.022,122.3
2022-05-06T07:49:03,42.805,6.029,0.044,-0.018,0.003,101.0,102.0,100.0,13.3,1505.2,321.0,-0.8,1.8,2470.932,13.28,0.047,112.2
2022-05-06T07:52:03,42.805,6.029,0.037,0.035,0.028,101.0,103.0,100.0,13.3,1505.2,322.2,-0.7,1.8,2470.922,13.28,0.05,46.6
2022-05-06T07:55:03,42.805,6.029,0.051,0.01,0.014,101.0,104.0,101.0,13.4,1505.2,325.4,-0.7,1.8,2470.906,13.28,0.051,78.9
2022-05-06T07:58:03,42.805,6.029,0.046,0.016,0.025,101.0,103.0,100.0,13.3,1505.2,329.7,-0.8,1.8,2470.934,13.28,0.048,70.8
2022-05-06T08:01:03,42.805,6.029,0.04,-0.002,0.012,100.0,103.0,100.0,13.4,1505.2,321.8,-0.8,1.8,2470.939,13.28,0.04,92.9
2022-05-06T08:04:03,42.805,6.029,0.033,0.001,-0.016,101.0,103.0,100.0,13.3,1505.2,325.8,-0.8,1.9,2470.928,13.28,0.033,88.3
2022-05-06T08:07:03,42.805,6.029,0.047,0.0,0.021,101.0,103.0,100.0,13.4,1505.2,323.1,-0.8,1.8,2470.97,13.28,0.047,90.0
2022-05-06T08:10:03,42.805,6.029,0.039,0.014,-0.01,101.0,103.0,101.0,13.4,1505.2,326.1,-0.7,1.8,2470.929,13.28,0.041,70.3
2022-05-06T08:13:03,42.805,6.029,0.028,0.007,0.001,101.0,103.0,100.0,13.3,1505.2,325.8,-0.8,1.8,2470.959,13.28,0.028,76.0
2022-05-06T08:16:03,42.805,6.029,0.023,0.014,0.0,102.0,101.0,100.0,13.4,1505.2,325.9,-0.7,1.8,2470.919,13.28,0.026,58.7
2022-05-06T08:19:03,42.805,6.029,0.019,0.009,-0.006,101.0,104.0,100.0,13.3,1505.2,331.6,-0.8,1.8,2470.924,13.28,0.021,64.7
2022-05-06T08:22:03,42.805,6.029,0.021,0.0,0.02,102.0,103.0,100.0,13.4,1505.2,331.6,-0.7,1.8,2470.909,13.28,0.021,90.0
2022-05-06T08:25:03,42.805,6.029,0.028,0.006,0.009,101.0,103.0,101.0,13.4,1505.2,328.1,-0.8,1.8,2470.906,13.28,0.028,77.9
2022-05-06T08:28:03,42.805,6.029,0.025,0.029,0.026,101.0,103.0,100.0,13.3,1505.2,327.3,-0.7,1.9,2470.913,13.28,0.038,40.8
2022-05-06T08:31:03,42.805,6.029,0.023,0.004,0.013,101.0,103.0,101.0,13.3,1505.2,328.9,-0.7,1.8,2470.891,13.28,0.023,80.1
2022-05-06T08:34:03,42.805,6.029,0.049,0.009,0.01,100.0,104.0,100.0,13.3,1505.2,327.2,-0.7,1.9,2470.868,13.28,0.049,79.6
2022-05-06T08:37:03,42.805,6.029,0.023,-0.002,0.024,101.0,104.0,101.0,13.4,1505.2,323.0,-0.8,1.8,2470.904,13.28,0.023,95.0
2022-05-06T08:40:03,42.805,6.029,0.056,-0.022,-0.01,100.0,104.0,101.0,13.4,1505.2,322.5,-0.7,1.9,2470.858,13.28,0.06,111.4
2022-05-06T08:43:03,42.805,6.029,0.042,-0.008,0.015,101.0,103.0,100.0,13.3,1505.2,326.0,-0.7,1.8,2470.76,13.28,0.042,100.8
2022-05-06T08:46:03,42.805,6.029,0.043,0.0,-0.007,101.0,104.0,100.0,13.4,1505.2,331.2,-0.8,1.8,2470.775,13.28,0.043,90.0
2022-05-06T08:49:03,42.805,6.029,0.029,0.008,0.017,102.0,105.0,100.0,13.3,1505.2,325.2,-0.8,1.8,2470.759,13.28,0.03,74.6
2022-05-06T08:52:03,42.805,6.029,0.018,0.01,0.031,102.0,104.0,101.0,13.4,1505.2,332.4,-0.8,1.8,2470.734,13.28,0.02,60.9
2022-05-06T08:55:03,42.805,6.029,0.043,0.02,0.002,102.0,104.0,100.0,13.3,1505.2,328.1,-0.8,1.8,2470.731,13.28,0.047,65.1
2022-05-06T08:58:03,42.805,6.029,0.009,0.004,0.012,101.0,102.0,102.0,13.4,1505.2,324.9,-0.7,1.8,2470.692,13.28,0.009,66.0
2022-05-06T09:04:03,42.805,6.029,0.037,-0.002,0.011,101.0,104.0,100.0,13.4,1505.2,333.0,-0.8,1.8,2470.701,13.28,0.037,93.1
2022-05-06T09:07:03,42.805,6.029,0.046,-0.006,0.012,101.0,103.0,100.0,13.4,1505.2,328.8,-0.7,1.8,2470.711,13.28,0.046,97.4
2022-05-06T09:10:03,42.805,6.029,0.022,0.017,0.022,101.0,104.0,100.0,13.3,1505.2,327.6,-0.7,1.8,2470.668,13.28,0.027,52.3
2022-05-06T09:13:03,42.805,6.029,0.077,0.024,0.031,102.0,103.0,100.0,13.4,1505.2,323.9,-0.8,1.8,2470.617,13.28,0.08,72.7
2022-05-06T09:16:03,42.805,6.029,0.024,0.014,0.016,102.0,103.0,102.0,13.3,1505.2,331.7,-0.7,1.8,2470.591,13.28,0.027,59.7
2022-05-06T09:19:03,42.805,6.029,0.005,0.033,0.038,102.0,103.0,100.0,13.3,1505.2,328.3,-0.8,1.8,2470.578,13.28,0.033,8.6
2022-05-06T09:22:03,42.805,6.029,0.009,0.005,0.022,102.0,103.0,100.0,13.4,1505.2,325.0,-0.7,1.9,2470.722,13.28,0.01,60.9
2022-05-06T09:25:03,42.805,6.029,0.056,0.003,0.018,101.0,103.0,100.0,13.4,1505.2,327.1,-0.8,1.8,2471.037,13.28,0.056,86.9
2022-05-06T09:28:03,42.805,6.029,0.019,0.003,0.012,101.0,103.0,100.0,13.3,1505.2,323.2,-0.8,1.8,2470.548,13.28,0.019,81.0
2022-05-06T09:31:03,42.805,6.029,0.038,0.027,0.064,101.0,104.0,100.0,13.4,1505.2,321.4,-0.7,1.8,2470.406,13.28,0.046,54.6
2022-05-06T09:34:03,42.805,6.029,0.025,0.018,0.027,101.0,103.0,101.0,13.4,1505.2,327.5,-0.7,1.8,2470.455,13.28,0.03,54.2
2022-05-06T09:37:03,42.805,6.029,-0.006,0.009,-0.028,101.0,104.0,99.0,13.4,1505.2,326.1,-0.7,1.8,2470.46,13.28,0.01,326.3
2022-05-06T09:40:03,42.805,6.029,0.025,0.016,0.012,101.0,104.0,100.0,13.4,1505.2,330.9,-0.7,1.8,2470.479,13.28,0.029,57.4
2022-05-06T09:43:03,42.805,6.029,0.034,0.02,0.033,103.0,103.0,100.0,13.3,1505.2,321.9,-0.8,1.8,2470.438,13.28,0.039,59.5
2022-05-06T09:46:03,42.805,6.029,0.02,0.026,-0.006,102.0,103.0,101.0,13.4,1505.2,327.3,-0.8,1.8,2470.469,13.28,0.032,37.6
2022-05-06T09:49:03,42.805,6.029,0.044,-0.006,-0.018,102.0,104.0,99.0,13.4,1505.2,331.8,-0.7,1.8,2470.455,13.28,0.044,97.8
2022-05-06T09:52:03,42.805,6.029,0.009,0.021,0.02,102.0,103.0,101.0,13.4,1505.2,327.6,-0.8,1.8,2470.442,13.28,0.022,23.2
2022-05-06T09:55:03,42.805,6.029,-0.005,0.013,-0.004,102.0,103.0,100.0,13.4,1505.2,324.7,-0.7,1.8,2470.449,13.28,0.013,339.0
2022-05-06T09:58:03,42.805,6.029,0.029,-0.005,-0.024,102.0,104.0,99.0,13.4,1505.2,322.7,-0.7,1.8,2470.445,13.28,0.029,99.8